COSMOS 2251 DEB

Satellite information

Favourite Embed

Satellite Type and Status

DEBRISIN ORBIT

Key statistics

Satellite COSMOS 2251 DEB at a glance.

Uptime

11869

Days in orbit

Revolutions

≈ 14.6

Per day

Orbit

LEO

Low Earth Orbit

Inclination

74.0

Latest

Satellite identification and parameters

Extended collection of information and parameters for COSMOS 2251 DEB.

Object identification

Identified? True

Debris? True

Object name: COSMOS 2251 DEB

International designator: 1993-036AXL

Object number (NORAD): 36049

Object ID (CCSDS): 36049

Country: COMMONWEALTH OF INDEPENDENT STATES (CIS)

Current information (Y/N): Y

RCS size: SMALL

Orbital parameters

Period: 98.485 minutes

Inclination: 74.03 deg

SMA: 7064.394 km

Apoapsis: 693.871 km

Periapsis: 678.647 km

RAAN: 119.3632 deg

Eccentricy: 0.00107751

Argument of periapsis: 206.0125 deg

Mean anomaly: 154.0501 deg

Mean motion: 14.62144824 rev/day

Mean motion (dot): 0.00010708 rev/day2

B* drag term: 0.0021295048 1/REarth

Two-line elements (TLE)

Creation date: Dec. 13, 2025, 4:32 a.m.

Reference frame: TEME

Reference center: EARTH

Epoch: Dec. 12, 2025, 3:28 p.m. UTC

TLE line 0: 0 COSMOS 2251 DEB

TLE line 1: 1 36049U 93036AXL 25346.64503330 .00010708 00000-0 21295-2 0 9994

TLE line 2: 2 36049 74.0300 119.3632 0010775 206.0125 154.0501 14.62144824853636

Live tracking on map

Real-time ground track for satellite COSMOS 2251 DEB.

In-orbit conjunctions

A list of the most updated potential collisions computed for object COSMOS 2251 DEB.

Target Orbit TCA Probability of collision Miss distance Type
RUBIN 3/SL-8 SSO 2025-04-30 11:05:57 0.0006647432 36.0 (m) PAYLOAD

Associated space launch

Military communications satellite. Destroyed in a collision with Iridium 33.

COSMOS 2251 DEB was lifted into orbit during the mission ‘Kosmos-3M | Strela-2M 51’, on board a Kosmos-3M space rocket.

The launch took place on June 16, 1993, 4:17 a.m. from 132/1 (132L).

For more information about the launch, click the button.

Launch to space Kosmos-3M | Strela-2M 51
Kosmos-3M | Strela-2M 51

Agency: N/A

Status: Launch Successful

Launch date: June 16, 1993, 4:17 a.m. UTC

Rocket: Kosmos-3M

Launch pad: 132/1 (132L)

Location: Plesetsk Cosmodrome, Russian Federation

...

Latest news about this satellite

There are no fresh news available about this satellite. Check back as we update our databases every day.


Newsletter sign-up

Weekly statistics, charts and insights to help you stay on top of the space industry.